GW1728 Weather Reports


Display with metric or nautical units.
time (UTC)temp
F
wind
direction
speed
MPH
gust
MPH
rain 1hr
in
rain 24hr
in
rain mn
in
humidity
%
barometer
mb
20260902035926 64 164 0.0 0.0 0.00 0.00 0.00 47 1009.5
20260902035421 64 164 0.0 0.0 0.00 0.00 0.00 48 1009.5
20260902034920 65 164 0.0 0.0 0.00 0.00 0.00 47 1009.4
20260902034410 65 163 0.0 0.0 0.00 0.00 0.00 47 1009.5
20260902033909 66 159 0.0 0.0 0.00 0.00 0.00 45 1009.4
20260902033403 66 153 0.0 0.0 0.00 0.00 0.00 45 1009.4
20260902032902 67 122 1.0 2.0 0.00 0.00 0.00 44 1009.5
20260902032356 67 144 1.0 2.0 0.00 0.00 0.00 43 1009.5
20260902031857 67 130 1.0 1.0 0.00 0.00 0.00 45 1009.6
20260902031348 66 111 0.0 1.0 0.00 0.00 0.00 45 1009.4
20260902030843 67 105 2.0 2.0 0.00 0.00 0.00 46 1009.6
20260902030337 68 135 1.0 1.0 0.00 0.00 0.00 46 1009.4
20260902025836 69 135 1.0 2.0 0.00 0.00 0.00 45 1009.6
20260902025332 70 135 2.0 2.0 0.00 0.00 0.00 43 1009.5
20260902024826 72 125 1.0 2.0 0.00 0.00 0.00 39 1009.5
20260902024322 72 114 3.0 3.0 0.00 0.00 0.00 38 1009.4
20260902023817 71 95 3.0 3.0 0.00 0.00 0.00 39 1009.4
20260902023313 70 110 4.0 5.0 0.00 0.00 0.00 46 1009.5
20260902022811 70 46 2.0 2.0 0.00 0.00 0.00 47 1009.2
20260902022307 70 33 2.0 2.0 0.00 0.00 0.00 47 1009.3
20260902021803 70 27 2.0 2.0 0.00 0.00 0.00 43 1009.4
20260902021257 71 79 1.0 1.0 0.00 0.00 0.00 42 1009.4
20260902020753 71 91 0.0 0.0 0.00 0.00 0.00 39 1009.4
20260902020249 73 88 0.0 0.0 0.00 0.00 0.00 38 1009.5
20260902015744 73 90 0.0 0.0 0.00 0.00 0.00 37 1009.1
20260902015241 73 95 1.0 1.0 0.00 0.00 0.00 37 1009.3
20260902014736 73 123 1.0 1.0 0.00 0.00 0.00 38 1009.2
20260902014233 73 134 2.0 2.0 0.00 0.00 0.00 38 1009.3
20260902013731 73 120 1.0 1.0 0.00 0.00 0.00 39 1009.2
20260902013227 74 122 2.0 2.0 0.00 0.00 0.00 38 1009.2
20260902012722 76 151 1.0 1.0 0.00 0.00 0.00 37 1009.2
20260902012218 77 144 1.0 1.0 0.00 0.00 0.00 35 1009.2
20260902011713 78 107 3.0 3.0 0.00 0.00 0.00 33 1009.1
20260902011212 79 131 3.0 3.0 0.00 0.00 0.00 32 1009.2
20260902010706 80 94 3.0 3.0 0.00 0.00 0.00 31 1009.3
20260902010202 81 127 1.0 1.0 0.00 0.00 0.00 30 1009.3
20260902005700 82 136 1.0 2.0 0.00 0.00 0.00 29 1009.3
20260902005156 82 88 2.0 2.0 0.00 0.00 0.00 29 1009.2
20260902004655 82 92 3.0 3.0 0.00 0.00 0.00 27 1009.2
20260902004150 82 106 2.0 2.0 0.00 0.00 0.00 28 1009.4
20260902003646 82 80 4.0 5.0 0.00 0.00 0.00 26 1009.5
20260902003142 82 100 3.0 5.0 0.00 0.00 0.00 27 1009.3
20260902002637 83 123 5.0 6.0 0.00 0.00 0.00 27 1009.4
20260902002131 83 105 5.0 7.0 0.00 0.00 0.00 26 1009.3
20260902001626 83 123 4.0 5.0 0.00 0.00 0.00 26 1009.5
20260902001120 83 163 4.0 5.0 0.00 0.00 0.00 27 1009.5
20260902000616 83 121 6.0 8.0 0.00 0.00 0.00 26 1009.4
20260902000111 83 105 6.0 8.0 0.00 0.00 0.00 27 1009.3
20260901235605 84 109 3.0 3.0 0.00 0.00 0.00 25 1009.2
20260901235101 84 80 6.0 7.0 0.00 0.00 0.00 26 1009.6
20260901234559 84 94 5.0 7.0 0.00 0.00 0.00 25 1009.4
20260901234055 84 93 5.0 7.0 0.00 0.00 0.00 26 1009.4
20260901233555 84 93 9.0 10.0 0.00 0.00 0.00 25 1009.6
20260901233051 85 141 4.0 5.0 0.00 0.00 0.00 26 1009.7
20260901232546 85 168 1.0 2.0 0.00 0.00 0.00 24 1009.5
20260901232041 84 174 2.0 2.0 0.00 0.00 0.00 23 1009.7
20260901231537 84 177 3.0 3.0 0.00 0.00 0.00 24 1009.6
20260901231034 84 241 2.0 2.0 0.00 0.00 0.00 23 1009.8
20260901230534 83 183 2.0 2.0 0.00 0.00 0.00 24 1009.7
20260901230029 84 230 5.0 7.0 0.00 0.00 0.00 25 1009.7
20260901225524 84 140 3.0 3.0 0.00 0.00 0.00 24 1009.9
20260901225018 84 216 4.0 5.0 0.00 0.00 0.00 25 1009.9
20260901224514 84 181 3.0 3.0 0.00 0.00 0.00 23 1010.2
20260901224010 84 152 2.0 2.0 0.00 0.00 0.00 24 1010.2
20260901223505 84 229 4.0 5.0 0.00 0.00 0.00 23 1010.2
20260901223001 84 172 4.0 5.0 0.00 0.00 0.00 23 1010.2
20260901222457 84 208 1.0 2.0 0.00 0.00 0.00 25 1010.2
20260901221953 84 289 3.0 3.0 0.00 0.00 0.00 24 1010.2
20260901221448 84 56 1.0 2.0 0.00 0.00 0.00 23 1010.4
20260901220943 84 8 3.0 5.0 0.00 0.00 0.00 24 1010.3
20260901220442 84 55 4.0 5.0 0.00 0.00 0.00 24 1010.4
20260901215940 84 163 4.0 5.0 0.00 0.00 0.00 25 1010.6
20260901215438 83 116 5.0 7.0 0.00 0.00 0.00 24 1010.8
20260901214933 84 87 3.0 5.0 0.00 0.00 0.00 26 1010.8
20260901214431 84 85 3.0 5.0 0.00 0.00 0.00 25 1010.6
20260901213926 83 47 5.0 7.0 0.00 0.00 0.00 26 1010.8
20260901213421 84 76 5.0 6.0 0.00 0.00 0.00 27 1010.8
20260901212920 84 55 5.0 6.0 0.00 0.00 0.00 27 1010.9
20260901212415 83 69 3.0 3.0 0.00 0.00 0.00 27 1011.1
20260901211912 83 57 3.0 5.0 0.00 0.00 0.00 27 1011.1
20260901211408 82 22 8.0 9.0 0.00 0.00 0.00 28 1011.0
20260901210903 82 25 6.0 7.0 0.00 0.00 0.00 27 1011.3
20260901210358 80 45 7.0 8.0 0.00 0.00 0.00 29 1011.4
20260901205855 80 42 5.0 6.0 0.00 0.00 0.00 29 1011.4
20260901205349 81 18 6.0 8.0 0.00 0.00 0.00 28 1011.5
20260901204844 80 89 7.0 10.0 0.00 0.00 0.00 29 1011.5
20260901204341 81 145 7.0 8.0 0.00 0.00 0.00 28 1011.5
20260901203841 81 31 6.0 7.0 0.00 0.00 0.00 27 1011.8
20260901203341 81 59 8.0 9.0 0.00 0.00 0.00 27 1011.6
20260901202836 81 60 10.0 11.0 0.00 0.00 0.00 27 1011.8
20260901202331 81 110 6.0 7.0 0.00 0.00 0.00 29 1012.0
20260901201827 81 67 7.0 7.0 0.00 0.00 0.00 28 1011.7
20260901201326 80 70 7.0 9.0 0.00 0.00 0.00 29 1011.8
20260901200820 80 59 8.0 10.0 0.00 0.00 0.00 29 1012.0
20260901200315 80 84 9.0 13.0 0.00 0.00 0.00 28 1011.9
20260901195814 80 50 7.0 8.0 0.00 0.00 0.00 28 1011.9
20260901195307 80 64 4.0 6.0 0.00 0.00 0.00 31 1012.0
20260901194803 80 75 5.0 6.0 0.00 0.00 0.00 29 1012.3
20260901194258 80 108 4.0 6.0 0.00 0.00 0.00 30 1012.1
20260901193754 80 117 3.0 5.0 0.00 0.00 0.00 29 1012.2
20260901193252 79 109 7.0 7.0 0.00 0.00 0.00 29 1012.2
20260901192747 78 88 9.0 9.0 0.00 0.00 0.00 30 1012.2
20260901192243 79 103 7.0 8.0 0.00 0.00 0.00 31 1012.5
20260901191739 80 107 7.0 8.0 0.00 0.00 0.00 29 1012.5
20260901191234 79 131 4.0 6.0 0.00 0.00 0.00 28 1012.7
20260901190730 79 145 4.0 5.0 0.00 0.00 0.00 29 1012.5
20260901190224 78 162 3.0 5.0 0.00 0.00 0.00 30 1012.6
20260901185722 78 140 4.0 5.0 0.00 0.00 0.00 30 1012.7
20260901185221 78 167 2.0 3.0 0.00 0.00 0.00 32 1012.7
20260901184717 78 170 3.0 3.0 0.00 0.00 0.00 33 1012.9
20260901184212 78 106 7.0 9.0 0.00 0.00 0.00 31 1012.7
20260901183708 78 142 4.0 5.0 0.00 0.00 0.00 31 1012.9
20260901183207 77 49 2.0 2.0 0.00 0.00 0.00 31 1013.0
20260901182704 78 112 4.0 5.0 0.00 0.00 0.00 33 1013.0
20260901182202 77 169 4.0 5.0 0.00 0.00 0.00 33 1012.9
20260901181657 78 107 6.0 7.0 0.00 0.00 0.00 32 1013.1
20260901181151 77 145 6.0 8.0 0.00 0.00 0.00 35 1013.3
20260901180645 77 136 4.0 6.0 0.00 0.00 0.00 35 1013.3
20260901180140 76 155 5.0 6.0 0.00 0.00 0.00 33 1013.2
20260901175638 75 179 9.0 10.0 0.00 0.00 0.00 34 1013.2
20260901175133 75 197 4.0 5.0 0.00 0.00 0.00 34 1013.4
20260901174629 74 127 4.0 5.0 0.00 0.00 0.00 34 1013.4
20260901174125 74 167 6.0 6.0 0.00 0.00 0.00 37 1013.6
20260901173620 74 177 5.0 5.0 0.00 0.00 0.00 36 1013.4
20260901173115 75 98 4.0 6.0 0.00 0.00 0.00 36 1013.6
20260901172611 73 99 3.0 5.0 0.00 0.00 0.00 39 1013.6
20260901172109 73 125 5.0 7.0 0.00 0.00 0.00 36 1013.4
20260901171608 73 87 5.0 7.0 0.00 0.00 0.00 38 1013.8
20260901171108 73 64 3.0 3.0 0.00 0.00 0.00 39 1013.7
20260901170601 71 170 3.0 3.0 0.00 0.00 0.00 40 1013.8
20260901170056 70 189 5.0 6.0 0.00 0.00 0.00 42 1013.9
20260901165555 70 168 3.0 3.0 0.00 0.00 0.00 44 1013.9
20260901165051 69 136 2.0 2.0 0.00 0.00 0.00 44 1013.9
20260901164547 69 152 4.0 5.0 0.00 0.00 0.00 44 1013.9
20260901164041 68 152 2.0 3.0 0.00 0.00 0.00 44 1013.9
20260901163537 68 152 1.0 2.0 0.00 0.00 0.00 46 1014.0
20260901163036 68 177 5.0 6.0 0.00 0.00 0.00 46 1013.8
20260901162531 68 166 5.0 7.0 0.00 0.00 0.00 46 1013.9
20260901162030 67 160 5.0 5.0 0.00 0.00 0.00 47 1014.1
20260901161530 66 107 3.0 5.0 0.00 0.00 0.00 50 1014.0
20260901161029 65 168 6.0 7.0 0.00 0.00 0.00 50 1014.3
20260901160526 65 171 5.0 6.0 0.00 0.00 0.00 49 1014.2
20260901160020 64 122 4.0 5.0 0.00 0.00 0.00 50 1014.2
20260901155514 64 153 5.0 7.0 0.00 0.00 0.00 50 1014.1
20260901155010 64 138 3.0 5.0 0.00 0.00 0.00 52 1014.1
20260901154509 63 147 5.0 6.0 0.00 0.00 0.00 51 1014.3
20260901154004 64 157 5.0 6.0 0.00 0.00 0.00 52 1014.4
20260901153459 63 123 6.0 7.0 0.00 0.00 0.00 53 1014.3
20260901152958 63 138 6.0 7.0 0.00 0.00 0.00 54 1014.4
20260901152453 63 112 3.0 3.0 0.00 0.00 0.00 56 1014.3
20260901151952 63 113 5.0 6.0 0.00 0.00 0.00 55 1014.4
20260901151448 62 132 5.0 6.0 0.00 0.00 0.00 54 1014.2
20260901150947 62 99 3.0 3.0 0.00 0.00 0.00 56 1014.3
20260901150445 62 99 3.0 5.0 0.00 0.00 0.00 58 1014.3
20260901145943 61 144 2.0 2.0 0.00 0.00 0.00 61 1014.6
20260901145437 60 148 1.0 2.0 0.00 0.00 0.00 61 1014.3
20260901144932 61 145 0.0 1.0 0.00 0.00 0.00 61 1014.5
20260901144427 60 132 0.0 1.0 0.00 0.00 0.00 63 1014.6
20260901143923 58 202 0.0 0.0 0.00 0.00 0.00 65 1014.4
20260901143419 58 187 0.0 0.0 0.00 0.00 0.00 65 1014.6
20260901142915 57 195 1.0 1.0 0.00 0.00 0.00 65 1014.6
20260901142414 57 196 2.0 2.0 0.00 0.00 0.00 68 1014.6
20260901141909 56 167 3.0 3.0 0.00 0.00 0.00 67 1014.5
20260901141404 55 171 2.0 2.0 0.00 0.00 0.00 69 1014.4
20260901140903 55 178 4.0 5.0 0.00 0.00 0.00 70 1014.6
20260901140401 54 161 3.0 3.0 0.00 0.00 0.00 73 1014.5
20260901135856 54 152 0.0 0.0 0.00 0.00 0.00 75 1014.3
20260901135351 53 150 1.0 1.0 0.00 0.00 0.00 75 1014.4
20260901134847 52 148 0.0 0.0 0.00 0.00 0.00 76 1014.4
20260901134343 52 92 0.0 1.0 0.00 0.00 0.00 78 1014.4
20260901133837 52 70 0.0 0.0 0.00 0.00 0.00 79 1014.4
20260901133336 51 60 0.0 0.0 0.00 0.00 0.00 78 1014.2
20260901132835 50 59 0.0 0.0 0.00 0.00 0.00 77 1014.1
20260901132329 50 54 0.0 0.0 0.00 0.00 0.00 79 1014.2
20260901131824 50 46 0.0 0.0 0.00 0.00 0.00 79 1014.3
20260901131323 49 45 0.0 0.0 0.00 0.00 0.00 80 1014.1
20260901130819 49 45 0.0 0.0 0.00 0.00 0.00 80 1014.2
20260901130319 49 45 0.0 0.0 0.00 0.00 0.00 79 1014.1
20260901125816 50 45 0.0 0.0 0.00 0.00 0.00 77 1014.0
20260901125311 50 45 0.0 0.0 0.00 0.00 0.00 76 1014.3
20260901124806 51 43 1.0 1.0 0.00 0.00 0.00 73 1014.1
20260901124301 51 42 1.0 1.0 0.00 0.00 0.00 73 1014.2
20260901123800 50 40 0.0 0.0 0.00 0.00 0.00 77 1014.4
20260901123255 49 40 0.0 0.0 0.00 0.00 0.00 78 1014.1
20260901122754 49 38 1.0 1.0 0.00 0.00 0.00 78 1014.1
20260901122248 49 36 1.0 1.0 0.00 0.00 0.00 78 1014.1
20260901121743 48 32 0.0 0.0 0.00 0.00 0.00 79 1014.2
20260901121238 48 32 0.0 0.0 0.00 0.00 0.00 80 1014.1
20260901120737 48 32 0.0 0.0 0.00 0.00 0.00 80 1014.1
20260901120232 48 32 0.0 0.0 0.00 0.00 0.00 80 1014.2
20260901115728 48 32 0.0 0.0 0.00 0.00 0.00 80 1014.0
20260901115224 48 32 0.0 0.0 0.00 0.00 0.00 80 1014.1
20260901114720 49 33 0.0 0.0 0.00 0.00 0.00 79 1014.1
20260901114215 49 32 0.0 0.0 0.00 0.00 0.00 78 1014.1
20260901113713 49 31 0.0 0.0 0.00 0.00 0.00 77 1014.0
20260901113209 50 31 0.0 0.0 0.00 0.00 0.00 76 1014.1
20260901112708 50 31 0.0 0.0 0.00 0.00 0.00 75 1014.2
20260901112203 51 30 0.0 0.0 0.00 0.00 0.00 74 1014.2
20260901111703 50 29 0.0 0.0 0.00 0.00 0.00 75 1014.2
20260901111202 50 29 0.0 0.0 0.00 0.00 0.00 75 1014.3
20260901110656 50 28 0.0 0.0 0.00 0.00 0.00 78 1014.5
20260901110152 49 28 0.0 0.0 0.00 0.00 0.00 79 1014.4
20260901105648 50 29 0.0 0.0 0.00 0.00 0.00 79 1014.3
20260901105148 50 28 0.0 0.0 0.00 0.00 0.00 79 1014.5
20260901104644 50 28 1.0 1.0 0.00 0.00 0.00 78 1014.3
20260901104139 50 28 2.0 2.0 0.00 0.00 0.00 82 1014.3
20260901103638 50 25 0.0 0.0 0.00 0.00 0.00 82 1014.4
20260901103134 51 26 1.0 1.0 0.00 0.00 0.00 81 1014.2
20260901102634 50 27 2.0 3.0 0.00 0.00 0.00 82 1014.3
20260901102128 49 341 0.0 1.0 0.00 0.00 0.00 82 1014.4
20260901101624 51 351 0.0 0.0 0.00 0.00 0.00 79 1014.5
20260901101123 52 21 1.0 2.0 0.00 0.00 0.00 77 1014.8
20260901100623 50 13 1.0 2.0 0.00 0.00 0.00 81 1014.5
20260901100118 49 301 1.0 1.0 0.00 0.00 0.00 87 1014.6
20260901095617 48 308 2.0 2.0 0.00 0.00 0.00 86 1014.8
20260901095114 49 295 0.0 0.0 0.00 0.00 0.00 84 1014.9
20260901094609 49 317 0.0 1.0 0.00 0.00 0.00 84 1014.8
20260901094103 49 319 3.0 3.0 0.00 0.00 0.00 86 1014.9
20260901093557 49 265 0.0 0.0 0.00 0.00 0.00 84 1014.6
20260901093052 48 265 0.0 1.0 0.00 0.00 0.00 86 1014.4
20260901092548 48 266 0.0 0.0 0.00 0.00 0.00 85 1014.8
20260901092044 49 270 0.0 0.0 0.00 0.00 0.00 84 1014.5
20260901091539 50 275 0.0 0.0 0.00 0.00 0.00 82 1014.5
20260901091034 50 281 0.0 0.0 0.00 0.00 0.00 80 1014.5
20260901090533 51 292 0.0 0.0 0.00 0.00 0.00 78 1014.6
20260901090029 50 245 2.0 2.0 0.00 0.00 0.00 80 1014.6
20260901085524 50 213 0.0 0.0 0.00 0.00 0.00 80 1014.8
20260901085021 50 213 0.0 0.0 0.00 0.00 0.00 80 1014.6
20260901084516 51 210 0.0 0.0 0.00 0.00 0.00 78 1014.6
20260901084012 51 190 0.0 0.0 0.00 0.00 0.00 77 1014.5
20260901083507 51 177 0.0 0.0 0.00 0.00 0.00 77 1014.5
20260901083004 50 212 0.0 0.0 0.00 0.00 0.00 81 1014.4
20260901082500 49 212 0.0 0.0 0.00 0.00 0.00 82 1014.5
20260901081955 49 212 0.0 0.0 0.00 0.00 0.00 82 1014.6
20260901081450 50 212 0.0 0.0 0.00 0.00 0.00 81 1014.8
20260901080945 50 212 0.0 0.0 0.00 0.00 0.00 80 1014.6
20260901080444 50 158 0.0 0.0 0.00 0.00 0.00 79 1014.8
20260901075944 50 130 0.0 0.0 0.00 0.00 0.00 80 1015.0
20260901075440 50 117 0.0 0.0 0.00 0.00 0.00 79 1014.9
20260901074934 51 98 0.0 0.0 0.00 0.00 0.00 78 1015.0
20260901074433 51 88 0.0 0.0 0.00 0.00 0.00 77 1015.0
20260901073929 51 77 0.0 0.0 0.00 0.00 0.00 78 1014.9
20260901073426 51 77 0.0 0.0 0.00 0.00 0.00 80 1015.1
20260901072926 51 157 0.0 0.0 0.00 0.00 0.00 75 1015.2
20260901072421 52 157 0.0 0.0 0.00 0.00 0.00 73 1015.2
20260901071916 53 157 0.0 0.0 0.00 0.00 0.00 68 1015.2
20260901071415 54 157 0.0 0.0 0.00 0.00 0.00 66 1015.1
20260901070914 53 157 0.0 0.0 0.00 0.00 0.00 68 1015.1
20260901070409 52 157 0.0 0.0 0.00 0.00 0.00 69 1015.1
20260901065908 51 156 0.0 0.0 0.00 0.00 0.00 72 1015.0
20260901065404 51 157 0.0 0.0 0.00 0.00 0.00 73 1015.4
20260901064859 51 157 0.0 0.0 0.00 0.00 0.00 73 1015.2
20260901064355 53 157 0.0 0.0 0.00 0.00 0.00 70 1015.1
20260901063852 53 157 0.0 0.0 0.00 0.00 0.00 68 1015.1
20260901063348 54 157 0.0 0.0 0.00 0.00 0.00 66 1015.0
20260901062844 53 157 0.0 0.0 0.00 0.00 0.00 67 1015.1
20260901062340 54 157 0.0 0.0 0.00 0.00 0.00 67 1015.3
20260901061835 54 157 0.0 0.0 0.00 0.00 0.00 66 1015.2
20260901061330 53 156 0.0 0.0 0.00 0.00 0.00 66 1015.2
20260901060826 53 156 0.0 0.0 0.00 0.00 0.00 70 1015.1
20260901060321 54 155 0.0 0.0 0.00 0.00 0.00 68 1015.4
20260901055815 54 153 0.0 0.0 0.00 0.00 0.00 66 1015.2
20260901055312 55 152 0.0 0.0 0.00 0.00 0.00 65 1015.4
20260901054809 56 141 0.0 0.0 0.00 0.00 0.00 62 1015.2
20260901054305 55 158 0.0 0.0 0.00 0.00 0.00 66 1015.3
20260901053801 55 159 0.0 0.0 0.00 0.00 0.00 68 1015.3
20260901053255 55 159 0.0 0.0 0.00 0.00 0.00 66 1015.3
20260901052751 56 158 0.0 0.0 0.00 0.00 0.00 66 1015.3
20260901052247 56 157 0.0 0.0 0.00 0.00 0.00 62 1015.3
20260901051745 55 151 0.0 0.0 0.00 0.00 0.00 64 1015.3
20260901051241 55 159 0.0 0.0 0.00 0.00 0.00 68 1015.4
20260901050736 55 148 0.0 0.0 0.00 0.00 0.00 64 1015.5
20260901050231 55 132 0.0 0.0 0.00 0.00 0.00 64 1015.4
20260901045726 56 125 0.0 0.0 0.00 0.00 0.00 63 1015.5
20260901045221 57 103 0.0 0.0 0.00 0.00 0.00 62 1015.5
20260901044716 57 52 0.0 0.0 0.00 0.00 0.00 62 1015.4
20260901044214 57 57 0.0 0.0 0.00 0.00 0.00 61 1015.4
20260901043708 57 133 0.0 0.0 0.00 0.00 0.00 62 1015.6
20260901043203 56 133 0.0 0.0 0.00 0.00 0.00 63 1015.5
20260901042702 56 126 0.0 0.0 0.00 0.00 0.00 64 1015.4
20260901042157 57 125 0.0 0.0 0.00 0.00 0.00 64 1015.5
20260901041654 57 118 0.0 0.0 0.00 0.00 0.00 63 1015.6
20260901041153 58 113 0.0 0.0 0.00 0.00 0.00 61 1015.5
20260901040648 59 91 1.0 2.0 0.00 0.00 0.00 60 1015.5